Location: Newark
(40.9833°N, 0.0333°W)
Time: 14:49:06
(UTC+00:00)

Envisat - Visible Passes

Search period start: 21 March 2019 00:00
Search period end: 31 March 2019 00:00
Orbit: 764 x 766 km, 98.2° (Epoch: 21 March)

Date Brightness Start Highest point End Pass type
(mag) Time Alt. Az. Time Alt. Az. Time Alt. Az.
21 Mar 4.6 19:15:39 10° SSW 19:20:20 38° W 19:25:04 10° NNW visible
22 Mar 3.1 18:38:26 10° SSE 18:43:30 85° WSW 18:48:37 10° NNW visible
23 Mar 5.5 19:42:12 10° SW 19:46:03 22° W 19:49:56 10° NW visible
24 Mar 4.1 19:04:12 10° S 19:09:05 48° W 19:14:00 10° NNW visible
25 Mar 6.1 20:09:57 10° WSW 20:11:52 12° W 20:13:47 10° WNW visible
26 Mar 5.2 19:30:28 10° SSW 19:34:45 27° W 19:39:04 10° NW visible
27 Mar 3.6 18:52:49 10° S 18:57:50 61° W 19:02:53 10° NNW visible
28 Mar 5.9 19:57:32 10° SW 20:00:31 16° W 20:03:31 10° NW visible
29 Mar 4.8 19:18:52 10° SSW 19:23:27 34° W 19:28:06 10° NNW visible
